Regional Weather Roundup
Issued by NWS Sioux Falls, SD

Home | Current Version | Previous Version | Text Only | Print | Product List | Glossary On
Versions: 1 2 3 4 5 6 7 8 9 10 11 12 13 14 15 16 17 18 19 20 21 22 23 24 25 26 27 28 29 30 31 32 33 34 35 36 37 38 39 40 41 42 43 44 45 46 47 48 49 50
000
ASUS43 KFSD 032010
RWRFSD

WEATHER ROUNDUP FOR SE SOUTH DAKOTA/SW MINNESOTA/NW IOWA
NATIONAL WEATHER SERVICE SIOUX FALLS SD
300 PM CDT MON AUG 03 2015

NOTE: "FAIR" INDICATES FEW OR NO CLOUDS BELOW 12,000 FEET WITH NO
SIGNIFICANT WEATHER AND OR OBSTRUCTIONS TO VISIBILITY.


SDZ038>040-050-052>070-032100-
SOUTHEAST SOUTH DAKOTA

CITY           SKY/WX    TMP DP  RH WIND       PRES   REMARKS
BROOKINGS      MOSUNNY   77  54  44 NW8       29.99F
CHAMBERLAIN    SUNNY     81  58  45 SW6       29.99S
HURON          SUNNY     81  53  37 W8        29.97F
MADISON        FAIR      77  55  47 NW3       29.99F
MITCHELL       SUNNY     83  57  41 VRB5      29.97F
SIOUX FALLS    MOSUNNY   80  57  45 W6        29.98F
WINNER         FAIR      85  55  35 NE8       29.99F
YANKTON        MOSUNNY   81  61  50 SE8       29.96F
$$

MNZ071-072-080-081-089-090-097-098-032100-
SOUTHWEST MINNESOTA

CITY           SKY/WX    TMP DP  RH WIND       PRES   REMARKS
FAIRMONT       SUNNY     79  52  38 NW16G22   29.95F
JACKSON        MOSUNNY   79  54  41 NW9       29.98S
LUVERNE        MOSUNNY   79  55  44 W3        29.99S
MARSHALL       MOSUNNY   79  54  41 NW10      29.97S
MONTEVIDEO     SUNNY     81  54  39 NW12G17   29.96F
PIPESTONE      MOSUNNY   77  55  47 W9        29.99F
REDWOOD FALLS  SUNNY     80  50  34 NW13G18   29.94S
TRACY          MOSUNNY   79  57  47 NW6       29.97S
WINDOM         MOSUNNY   79  54  41 NW9       29.97F
WORTHINGTON    PTSUNNY   77  54  44 W10G18    29.98F
$$

IAZ001>003-012>014-020>022-031-032-NEZ013-014-SDZ071-032100-
NORTHWEST IOWA

CITY           SKY/WX    TMP DP  RH WIND       PRES   REMARKS
CHEROKEE       SUNNY     78  58  50 NW5       29.99S
DENISON        SUNNY     77  59  53 N5        29.97S
ESTHERVILLE    SUNNY     78  54  43 N9        29.96F
LE MARS        SUNNY     79  59  50 CALM      29.99F
ORANGE CITY    SUNNY     75  57  53 NW7       29.99F
SHELDON        SUNNY     77  59  53 NW8       29.98F
SIOUX CITY     SUNNY     80  61  52 W5        29.98F
SPENCER        SUNNY     81  52  36 NW13      29.98S
STORM LAKE     SUNNY     77  57  50 VRB7      30.00S
$$

ABBREVIATIONS USED IN REMARKS
   TC - TEMPERATURE IN CELSIUS
  WCI - WIND CHILL INDEX
   HX - HEAT INDEX
  VSB - VISIBILITY



USA.gov is the U.S. government's official web portal to all federal, state and local government web resources and services.